contact:dominique.lefevre@mio.osupytheas.fr, maurice.libes@osupytheas.fr, didier.mallarino@osupytheas.fr
Project:EMSO http://www.emso-fr.org/EMSO-France
Depth: 2436.0 m
Title:EMSO Ligure Ouest : Data MII capteur AQUADOPP
Date,Latitude,Longitude,X_East,Y_North,Z_Up,Amplitude_X,Amplitude_Y,Amplitude_Z,Batterie,SoundSpeed,Heading,Pitch,Roll,Pressure,TIS,Speed,Direction
, degrees North, degrees East, m.s-1, m.s-1,m.s-1, 1, 1, 1, Volt, m.s-1, degree, degree, degree, dbar, degree_C, m.s-1, degree
2023-12-01T00:04:03,42.805,6.029,0.042,-0.017,-0.02,111.0,110.0,107.0,13.3,1505.2,355.7,-0.8,1.8,2471.573,13.28,0.045,112.0
2023-12-01T00:07:03,42.805,6.029,0.021,-0.036,0.005,111.0,111.0,108.0,13.4,1505.2,1.7,-0.8,1.8,2471.588,13.29,0.041,149.7
2023-12-01T00:10:03,42.805,6.029,0.028,-0.019,0.02,112.0,110.0,107.0,13.4,1505.2,338.0,-0.8,1.8,2471.58,13.29,0.033,124.2
2023-12-01T00:13:03,42.805,6.029,0.041,-0.027,-0.009,111.0,110.0,107.0,13.4,1505.2,342.0,-0.8,1.8,2471.559,13.29,0.049,123.4
2023-12-01T00:16:03,42.805,6.029,0.023,-0.036,-0.036,112.0,111.0,108.0,13.3,1505.2,359.0,-0.7,1.8,2471.551,13.29,0.042,147.4
2023-12-01T00:19:03,42.805,6.029,0.01,-0.007,0.016,111.0,110.0,107.0,13.4,1505.2,340.4,-0.8,1.8,2471.567,13.29,0.012,125.0
2023-12-01T00:22:03,42.805,6.029,0.003,-0.021,-0.021,111.0,111.0,108.0,13.4,1505.2,346.4,-0.8,1.8,2471.537,13.29,0.021,171.9
2023-12-01T00:25:03,42.805,6.029,0.025,-0.017,0.0,112.0,110.0,107.0,13.3,1505.2,1.7,-0.7,1.8,2471.554,13.29,0.03,124.2
2023-12-01T00:28:03,42.805,6.029,0.036,-0.012,-0.022,111.0,110.0,107.0,13.4,1505.2,338.9,-0.8,1.8,2471.539,13.29,0.037,108.4
2023-12-01T00:31:03,42.805,6.029,0.038,-0.023,-0.011,112.0,111.0,107.0,13.4,1505.2,343.7,-0.7,1.8,2471.492,13.29,0.044,121.2
2023-12-01T00:34:03,42.805,6.029,0.015,-0.017,-0.022,112.0,110.0,107.0,13.3,1505.2,358.2,-0.7,1.8,2471.513,13.29,0.022,138.6
2023-12-01T00:37:03,42.805,6.029,0.036,-0.014,0.006,112.0,111.0,107.0,13.4,1505.2,340.4,-0.8,1.8,2471.562,13.29,0.038,111.2
2023-12-01T00:40:03,42.805,6.029,0.015,-0.017,-0.005,111.0,110.0,108.0,13.4,1505.2,344.1,-0.7,1.8,2471.538,13.29,0.022,138.6
2023-12-01T00:43:03,42.805,6.029,0.02,-0.012,0.001,111.0,111.0,107.0,13.4,1505.2,353.7,-0.8,1.8,2471.545,13.29,0.023,121.0
2023-12-01T00:46:03,42.805,6.029,0.043,-0.021,-0.001,111.0,111.0,108.0,13.4,1505.2,340.8,-0.8,1.8,2471.533,13.29,0.047,116.0
2023-12-01T00:49:03,42.805,6.029,0.052,-0.027,0.019,112.0,111.0,108.0,13.4,1505.2,343.5,-0.8,1.8,2471.513,13.29,0.058,117.4
2023-12-01T00:52:03,42.805,6.029,0.057,-0.016,0.006,112.0,112.0,107.0,13.4,1505.2,355.2,-0.8,1.8,2471.53,13.29,0.059,105.7
2023-12-01T00:55:03,42.805,6.029,0.026,-0.024,-0.027,112.0,113.0,107.0,13.3,1505.2,353.5,-0.7,1.8,2471.564,13.29,0.035,132.7
2023-12-01T00:58:03,42.805,6.029,0.043,-0.038,-0.017,111.0,111.0,107.0,13.4,1505.2,353.6,-0.8,1.8,2471.523,13.29,0.057,131.5
2023-12-01T01:04:03,42.805,6.029,0.042,-0.02,0.023,112.0,111.0,108.0,13.4,1505.2,339.8,-0.8,1.8,2471.564,13.28,0.046,115.5
2023-12-01T01:07:03,42.805,6.029,0.022,-0.026,-0.021,113.0,111.0,107.0,13.4,1505.2,351.5,-0.8,1.8,2471.576,13.28,0.034,139.8
2023-12-01T01:10:03,42.805,6.029,0.047,-0.029,-0.01,112.0,110.0,108.0,13.4,1505.2,344.6,-0.8,1.8,2471.591,13.29,0.055,121.7
2023-12-01T01:13:03,42.805,6.029,0.008,-0.038,0.012,111.0,111.0,108.0,13.4,1505.2,0.0,-0.8,1.8,2471.528,13.29,0.038,168.1
2023-12-01T01:16:03,42.805,6.029,0.031,-0.012,0.007,111.0,110.0,108.0,13.4,1505.2,343.2,-0.8,1.8,2471.539,13.29,0.033,111.2
2023-12-01T01:19:03,42.805,6.029,0.036,-0.043,0.011,111.0,111.0,108.0,13.4,1505.2,353.7,-0.8,1.8,2471.502,13.29,0.056,140.1
2023-12-01T01:22:03,42.805,6.029,0.037,-0.043,0.035,112.0,110.0,107.0,13.4,1505.2,0.8,-0.8,1.8,2471.525,13.29,0.056,139.3
2023-12-01T01:25:03,42.805,6.029,0.031,-0.043,-0.005,111.0,111.0,108.0,13.4,1505.2,353.7,-0.8,1.8,2471.511,13.29,0.053,144.2
2023-12-01T01:28:03,42.805,6.029,0.037,-0.021,-0.009,111.0,110.0,108.0,13.4,1505.2,338.6,-0.8,1.8,2471.514,13.29,0.042,119.6
2023-12-01T01:31:03,42.805,6.029,0.031,-0.025,0.023,111.0,110.0,107.0,13.4,1505.2,345.3,-0.8,1.8,2471.524,13.29,0.039,128.9
2023-12-01T01:34:03,42.805,6.029,0.032,-0.006,0.01,111.0,112.0,107.0,13.3,1505.2,0.8,-0.8,1.8,2471.514,13.29,0.032,100.6
2023-12-01T01:37:03,42.805,6.029,0.043,-0.031,-0.005,112.0,111.0,107.0,13.4,1505.2,340.3,-0.8,1.8,2471.5,13.29,0.053,125.8
2023-12-01T01:40:03,42.805,6.029,0.03,-0.024,-0.006,112.0,110.0,108.0,13.4,1505.2,351.7,-0.8,1.8,2471.494,13.29,0.038,128.7
2023-12-01T01:43:03,42.805,6.029,0.031,-0.029,0.012,111.0,110.0,107.0,13.4,1505.2,358.4,-0.8,1.8,2471.51,13.29,0.042,133.1
2023-12-01T01:46:03,42.805,6.029,0.038,-0.022,0.013,112.0,110.0,107.0,13.4,1505.2,340.2,-0.8,1.8,2471.508,13.29,0.043,120.1
2023-12-01T01:49:03,42.805,6.029,0.058,-0.019,-0.005,113.0,111.0,108.0,13.4,1505.2,346.8,-0.8,1.8,2471.472,13.29,0.061,108.1
2023-12-01T01:52:03,42.805,6.029,0.041,-0.02,-0.012,112.0,111.0,108.0,13.4,1505.2,351.5,-0.7,1.8,2471.468,13.29,0.045,116.0
2023-12-01T01:55:03,42.805,6.029,0.022,-0.017,0.004,112.0,111.0,108.0,13.4,1505.2,349.4,-0.7,1.8,2471.503,13.29,0.027,127.7
2023-12-01T01:58:03,42.805,6.029,0.046,-0.022,-0.018,111.0,110.0,108.0,13.4,1505.2,349.2,-0.8,1.8,2471.51,13.29,0.05,115.6
2023-12-01T02:04:03,42.805,6.029,0.025,-0.037,-0.009,111.0,110.0,108.0,13.4,1505.2,351.0,-0.8,1.8,2471.552,13.28,0.044,146.0
2023-12-01T02:07:03,42.805,6.029,0.054,-0.023,0.0,112.0,112.0,108.0,13.3,1505.2,341.0,-0.8,1.8,2471.523,13.28,0.058,113.1
2023-12-01T02:10:03,42.805,6.029,0.036,-0.02,-0.01,112.0,110.0,108.0,13.3,1505.2,345.7,-0.8,1.8,2471.526,13.29,0.041,119.1
2023-12-01T02:13:03,42.805,6.029,0.046,-0.03,0.018,112.0,110.0,108.0,13.4,1505.2,350.8,-0.8,1.8,2471.519,13.29,0.054,123.1
2023-12-01T02:16:03,42.805,6.029,0.016,-0.039,0.011,112.0,111.0,108.0,13.4,1505.2,0.0,-0.8,1.8,2471.532,13.29,0.042,157.7
2023-12-01T02:19:03,42.805,6.029,0.025,-0.036,-0.019,111.0,111.0,108.0,13.4,1505.2,354.9,-0.8,1.8,2471.528,13.29,0.043,145.2
2023-12-01T02:22:03,42.805,6.029,0.051,-0.041,0.002,111.0,110.0,108.0,13.4,1505.2,342.7,-0.8,1.8,2471.508,13.29,0.065,128.8
2023-12-01T02:25:03,42.805,6.029,0.048,-0.046,-0.008,111.0,111.0,109.0,13.4,1505.2,0.0,-0.8,1.8,2471.485,13.29,0.066,133.8
2023-12-01T02:28:03,42.805,6.029,0.043,-0.032,-0.007,111.0,110.0,107.0,13.3,1505.2,349.7,-0.8,1.8,2471.486,13.29,0.053,126.7
2023-12-01T02:31:03,42.805,6.029,0.045,-0.027,-0.011,111.0,111.0,107.0,13.3,1505.2,345.9,-0.8,1.8,2471.494,13.29,0.052,121.0
2023-12-01T02:34:03,42.805,6.029,0.048,-0.032,-0.008,111.0,110.0,108.0,13.3,1505.2,348.0,-0.8,1.8,2471.463,13.29,0.057,123.7
2023-12-01T02:37:03,42.805,6.029,0.026,-0.039,-0.014,112.0,111.0,107.0,13.4,1505.2,354.0,-0.7,1.8,2471.492,13.29,0.046,146.3
2023-12-01T02:40:03,42.805,6.029,0.042,-0.025,-0.012,113.0,111.0,108.0,13.4,1505.2,352.4,-0.8,1.8,2471.52,13.29,0.048,120.8
2023-12-01T02:43:03,42.805,6.029,0.052,-0.059,-0.022,112.0,111.0,107.0,13.3,1505.2,348.0,-0.8,1.8,2471.492,13.29,0.078,138.6
2023-12-01T02:46:03,42.805,6.029,0.043,-0.031,-0.017,112.0,109.0,107.0,13.3,1505.2,345.3,-0.8,1.8,2471.52,13.29,0.053,125.8
2023-12-01T02:49:03,42.805,6.029,0.024,-0.035,-0.014,112.0,111.0,108.0,13.3,1505.2,359.1,-0.8,1.8,2471.52,13.29,0.042,145.6
2023-12-01T02:52:03,42.805,6.029,0.037,-0.059,-0.021,113.0,111.0,107.0,13.3,1505.2,339.0,-0.8,1.8,2471.49,13.29,0.069,147.9
2023-12-01T02:55:03,42.805,6.029,0.034,-0.03,0.02,111.0,110.0,107.0,13.4,1505.2,342.9,-0.8,1.8,2471.486,13.29,0.045,131.4
2023-12-01T02:58:03,42.805,6.029,0.03,-0.038,-0.003,111.0,110.0,108.0,13.4,1505.2,355.1,-0.8,1.8,2471.518,13.29,0.048,141.7
2023-12-01T03:04:03,42.805,6.029,0.015,-0.05,0.001,111.0,111.0,109.0,13.3,1505.2,356.4,-0.7,1.9,2471.514,13.28,0.052,163.3
2023-12-01T03:07:03,42.805,6.029,0.042,-0.061,-0.005,112.0,109.0,108.0,13.3,1505.2,359.1,-0.8,1.8,2471.506,13.29,0.074,145.4
2023-12-01T03:10:03,42.805,6.029,0.027,-0.018,0.012,112.0,110.0,107.0,13.4,1505.2,345.3,-0.8,1.8,2471.515,13.29,0.032,123.7
2023-12-01T03:13:03,42.805,6.029,0.053,-0.027,0.012,112.0,111.0,107.0,13.4,1505.2,345.5,-0.8,1.8,2471.503,13.29,0.059,117.0
2023-12-01T03:16:03,42.805,6.029,0.035,-0.038,-0.001,111.0,111.0,107.0,13.4,1505.2,0.8,-0.8,1.8,2471.517,13.29,0.051,137.4
2023-12-01T03:19:03,42.805,6.029,0.065,-0.024,-0.015,112.0,110.0,108.0,13.4,1505.2,340.3,-0.8,1.8,2471.524,13.29,0.069,110.3
2023-12-01T03:22:03,42.805,6.029,0.034,-0.037,-0.01,111.0,109.0,108.0,13.3,1505.2,343.1,-0.7,1.8,2471.487,13.29,0.05,137.4
2023-12-01T03:25:03,42.805,6.029,0.012,-0.032,0.0,112.0,111.0,109.0,13.4,1505.2,359.0,-0.7,1.8,2471.512,13.29,0.034,159.4
2023-12-01T03:28:03,42.805,6.029,0.047,-0.037,0.004,111.0,110.0,108.0,13.4,1505.2,335.9,-0.8,1.8,2471.479,13.29,0.059,128.2
2023-12-01T03:31:03,42.805,6.029,0.042,-0.028,-0.02,111.0,111.0,107.0,13.4,1505.2,347.0,-0.7,1.8,2471.459,13.29,0.05,123.7
2023-12-01T03:34:03,42.805,6.029,0.051,-0.028,0.018,111.0,110.0,107.0,13.3,1505.2,344.8,-0.8,1.8,2471.497,13.29,0.058,118.8
2023-12-01T03:37:03,42.805,6.029,0.022,-0.052,0.005,112.0,111.0,107.0,13.3,1505.2,352.6,-0.8,1.8,2471.483,13.29,0.056,157.1
2023-12-01T03:40:03,42.805,6.029,0.029,-0.044,-0.018,112.0,111.0,108.0,13.4,1505.2,0.0,-0.8,1.8,2471.5,13.29,0.052,146.6
2023-12-01T03:43:03,42.805,6.029,0.04,-0.037,-0.013,110.0,110.0,108.0,13.4,1505.2,350.9,-0.8,1.8,2471.506,13.29,0.054,132.8
2023-12-01T03:46:03,42.805,6.029,0.031,-0.035,0.014,112.0,112.0,108.0,13.4,1505.2,347.2,-0.7,1.8,2471.467,13.29,0.046,138.5
2023-12-01T03:49:03,42.805,6.029,0.037,-0.042,-0.026,112.0,111.0,107.0,13.4,1505.2,0.8,-0.8,1.9,2471.487,13.29,0.055,138.6
2023-12-01T03:52:03,42.805,6.029,0.042,-0.046,-0.007,112.0,110.0,107.0,13.3,1505.2,348.2,-0.8,1.8,2471.47,13.29,0.062,137.6
2023-12-01T03:55:03,42.805,6.029,0.015,-0.052,-0.022,110.0,111.0,108.0,13.4,1505.2,349.6,-0.7,1.9,2471.488,13.29,0.054,163.9
2023-12-01T03:58:03,42.805,6.029,0.042,-0.063,0.003,112.0,110.0,108.0,13.4,1505.2,353.6,-0.8,1.8,2471.483,13.29,0.075,146.3
2023-12-01T04:04:03,42.805,6.029,0.043,-0.039,0.017,112.0,109.0,107.0,13.4,1505.2,346.6,-0.8,1.8,2471.535,13.28,0.058,132.2
2023-12-01T04:07:03,42.805,6.029,0.024,-0.034,-0.014,111.0,110.0,108.0,13.4,1505.2,354.7,-0.8,1.8,2471.481,13.28,0.041,144.8
2023-12-01T04:10:03,42.805,6.029,0.008,-0.039,0.006,112.0,111.0,107.0,13.4,1505.2,1.6,-0.8,1.8,2471.527,13.29,0.039,168.4
2023-12-01T04:13:03,42.805,6.029,0.032,-0.035,0.008,110.0,112.0,109.0,13.3,1505.2,352.6,-0.8,1.8,2471.542,13.29,0.047,137.6
2023-12-01T04:16:03,42.805,6.029,0.043,-0.046,0.0,111.0,111.0,108.0,13.3,1505.2,343.9,-0.7,1.8,2471.513,13.29,0.062,136.9
2023-12-01T04:19:03,42.805,6.029,0.035,-0.036,-0.024,111.0,111.0,108.0,13.4,1505.2,342.6,-0.8,1.8,2471.487,13.29,0.05,135.8
2023-12-01T04:22:03,42.805,6.029,0.039,-0.043,0.002,111.0,109.0,108.0,13.4,1505.2,339.3,-0.8,1.9,2471.476,13.29,0.058,137.8
2023-12-01T04:25:03,42.805,6.029,0.045,-0.046,0.008,111.0,111.0,109.0,13.4,1505.2,347.2,-0.8,1.8,2471.511,13.29,0.064,135.6
2023-12-01T04:28:03,42.805,6.029,0.029,-0.025,-0.042,111.0,110.0,107.0,13.4,1505.2,339.1,-0.8,1.8,2471.462,13.29,0.038,130.8
2023-12-01T04:31:03,42.805,6.029,0.028,-0.054,-0.024,113.0,111.0,108.0,13.4,1505.2,348.6,-0.8,1.8,2471.477,13.29,0.06,152.6
2023-12-01T04:34:03,42.805,6.029,0.016,-0.031,-0.003,112.0,110.0,108.0,13.3,1505.2,353.7,-0.8,1.8,2471.482,13.29,0.034,152.7
2023-12-01T04:37:03,42.805,6.029,0.045,-0.058,-0.029,111.0,111.0,108.0,13.3,1505.2,349.1,-0.8,1.8,2471.515,13.29,0.073,142.2
2023-12-01T04:40:03,42.805,6.029,0.022,-0.052,-0.025,112.0,110.0,108.0,13.4,1505.2,348.5,-0.8,1.8,2471.505,13.29,0.056,157.1
2023-12-01T04:43:03,42.805,6.029,0.034,-0.053,-0.014,111.0,111.0,108.0,13.4,1505.2,349.2,-0.7,1.8,2471.503,13.29,0.062,147.3
2023-12-01T04:46:03,42.805,6.029,0.008,-0.059,0.006,111.0,112.0,108.0,13.4,1505.2,346.7,-0.7,1.8,2471.535,13.29,0.059,172.3
2023-12-01T04:49:03,42.805,6.029,-0.002,-0.044,-0.013,112.0,111.0,108.0,13.4,1505.2,356.4,-0.8,1.8,2471.482,13.29,0.044,182.6
2023-12-01T04:52:03,42.805,6.029,0.035,-0.047,-0.026,111.0,111.0,107.0,13.4,1505.2,359.0,-0.8,1.8,2471.548,13.29,0.058,143.3
2023-12-01T04:55:03,42.805,6.029,0.006,-0.051,-0.01,112.0,111.0,108.0,13.4,1505.2,355.3,-0.8,1.8,2471.53,13.29,0.051,173.3
2023-12-01T04:58:03,42.805,6.029,0.014,-0.045,-0.01,112.0,111.0,108.0,13.4,1505.2,356.5,-0.8,1.8,2471.475,13.29,0.047,162.7
2023-12-01T05:04:03,42.805,6.029,0.012,-0.038,0.023,111.0,111.0,107.0,13.4,1505.2,0.8,-0.7,1.8,2471.549,13.28,0.039,162.5
2023-12-01T05:07:03,42.805,6.029,0.008,-0.055,-0.018,112.0,110.0,107.0,13.4,1505.2,350.9,-0.8,1.8,2471.523,13.29,0.055,171.7
2023-12-01T05:10:03,42.805,6.029,0.019,-0.058,-0.021,111.0,111.0,108.0,13.4,1505.2,352.6,-0.8,1.8,2471.567,13.29,0.061,161.9
2023-12-01T05:13:03,42.805,6.029,0.007,-0.039,0.011,111.0,110.0,108.0,13.4,1505.2,357.1,-0.8,1.8,2471.548,13.29,0.039,169.8
2023-12-01T05:16:03,42.805,6.029,0.017,-0.041,-0.004,112.0,110.0,108.0,13.3,1505.2,338.9,-0.7,1.8,2471.532,13.29,0.044,157.5
2023-12-01T05:19:03,42.805,6.029,0.007,-0.071,0.0,111.0,110.0,107.0,13.4,1505.2,354.6,-0.8,1.8,2471.519,13.29,0.071,174.4
2023-12-01T05:22:03,42.805,6.029,0.01,-0.039,-0.01,111.0,111.0,108.0,13.3,1505.2,355.3,-0.8,1.8,2471.544,13.29,0.04,165.6
2023-12-01T05:25:03,42.805,6.029,0.03,-0.048,-0.024,111.0,110.0,108.0,13.3,1505.2,338.5,-0.7,1.8,2471.568,13.29,0.056,148.0
2023-12-01T05:28:03,42.805,6.029,0.017,-0.052,-0.012,112.0,110.0,108.0,13.3,1505.2,342.9,-0.8,1.8,2471.553,13.29,0.054,161.9
2023-12-01T05:31:03,42.805,6.029,0.0,-0.046,-0.007,112.0,110.0,108.0,13.4,1505.2,358.3,-0.8,1.8,2471.542,13.29,0.046,180.0
2023-12-01T05:34:03,42.805,6.029,0.025,-0.041,0.0,111.0,111.0,107.0,13.4,1505.2,339.1,-0.7,1.8,2471.543,13.29,0.048,148.6
2023-12-01T05:37:03,42.805,6.029,0.024,-0.048,-0.048,111.0,110.0,107.0,13.4,1505.2,348.3,-0.8,1.8,2471.53,13.29,0.053,153.4
2023-12-01T05:40:03,42.805,6.029,0.027,-0.059,-0.014,111.0,109.0,108.0,13.3,1505.2,351.6,-0.7,1.8,2471.534,13.29,0.064,155.4
2023-12-01T05:43:03,42.805,6.029,0.05,-0.058,-0.021,112.0,110.0,108.0,13.4,1505.2,338.3,-0.8,1.8,2471.566,13.29,0.076,139.2
2023-12-01T05:46:03,42.805,6.029,0.021,-0.05,-0.03,111.0,110.0,107.0,13.4,1505.2,348.3,-0.8,1.8,2471.523,13.29,0.054,157.2
2023-12-01T05:49:03,42.805,6.029,0.005,-0.041,-0.024,111.0,111.0,108.0,13.4,1505.2,343.6,-0.8,1.8,2471.565,13.29,0.041,173.0
2023-12-01T05:52:03,42.805,6.029,-0.013,-0.063,-0.012,111.0,109.0,108.0,13.4,1505.2,0.7,-0.7,1.8,2471.544,13.29,0.064,191.7
2023-12-01T05:55:03,42.805,6.029,0.039,-0.047,0.003,111.0,111.0,108.0,13.4,1505.2,345.7,-0.8,1.8,2471.548,13.29,0.061,140.3
2023-12-01T05:58:03,42.805,6.029,0.04,-0.048,-0.036,111.0,110.0,107.0,13.4,1505.2,344.3,-0.8,1.8,2471.581,13.29,0.062,140.2
2023-12-01T06:04:03,42.805,6.029,0.034,-0.049,-0.019,110.0,110.0,108.0,13.3,1505.2,335.2,-0.7,1.8,2471.607,13.28,0.059,145.2
2023-12-01T06:07:03,42.805,6.029,0.004,-0.062,-0.033,111.0,111.0,107.0,13.4,1505.2,343.9,-0.8,1.8,2471.614,13.29,0.062,176.3
2023-12-01T06:10:03,42.805,6.029,0.029,-0.05,-0.005,112.0,111.0,107.0,13.4,1505.2,343.7,-0.8,1.8,2471.612,13.29,0.057,149.9
2023-12-01T06:13:03,42.805,6.029,0.011,-0.05,-0.013,111.0,111.0,108.0,13.3,1505.2,356.3,-0.8,1.8,2471.604,13.29,0.051,167.6
2023-12-01T06:16:03,42.805,6.029,0.013,-0.035,-0.01,111.0,110.0,107.0,13.4,1505.2,353.4,-0.8,1.8,2471.598,13.29,0.037,159.6
2023-12-01T06:19:03,42.805,6.029,0.006,-0.052,-0.031,112.0,111.0,107.0,13.3,1505.2,352.4,-0.7,1.8,2471.564,13.29,0.052,173.4
2023-12-01T06:22:03,42.805,6.029,0.011,-0.031,-0.004,110.0,110.0,108.0,13.4,1505.2,0.0,-0.8,1.8,2471.572,13.29,0.032,160.5
2023-12-01T06:25:03,42.805,6.029,0.01,-0.049,-0.005,111.0,111.0,108.0,13.3,1505.2,345.9,-0.8,1.8,2471.595,13.29,0.05,168.5
2023-12-01T06:28:03,42.805,6.029,0.018,-0.05,-0.011,111.0,110.0,107.0,13.4,1505.2,343.8,-0.8,1.8,2471.597,13.29,0.053,160.2
2023-12-01T06:31:03,42.805,6.029,0.022,-0.047,-0.021,112.0,110.0,107.0,13.4,1505.2,336.4,-0.8,1.8,2471.61,13.29,0.051,154.9
2023-12-01T06:34:03,42.805,6.029,0.002,-0.051,-0.015,111.0,110.0,107.0,13.4,1505.2,355.5,-0.7,1.8,2471.568,13.29,0.051,177.8
2023-12-01T06:37:03,42.805,6.029,0.026,-0.043,-0.015,111.0,110.0,108.0,13.4,1505.2,342.3,-0.8,1.8,2471.607,13.29,0.05,148.8
2023-12-01T06:40:03,42.805,6.029,0.019,-0.042,-0.01,110.0,110.0,108.0,13.3,1505.2,354.3,-0.8,1.8,2471.6,13.29,0.046,155.7
2023-12-01T06:43:03,42.805,6.029,0.048,-0.076,-0.029,111.0,110.0,107.0,13.3,1505.2,352.4,-0.7,1.8,2471.6,13.29,0.089,147.7
2023-12-01T06:46:03,42.805,6.029,-0.015,-0.05,0.009,111.0,111.0,108.0,13.3,1505.2,348.8,-0.8,1.8,2471.631,13.29,0.052,196.7
2023-12-01T06:49:03,42.805,6.029,0.012,-0.038,-0.02,112.0,109.0,107.0,13.4,1505.2,1.6,-0.8,1.8,2471.577,13.29,0.039,162.5
2023-12-01T06:52:03,42.805,6.029,-0.009,-0.047,-0.008,110.0,110.0,108.0,13.4,1505.2,3.3,-0.8,1.8,2471.643,13.29,0.047,190.8
2023-12-01T06:55:03,42.805,6.029,0.014,-0.045,-0.021,111.0,109.0,106.0,13.4,1505.2,339.1,-0.7,1.8,2471.618,13.29,0.047,162.7
2023-12-01T06:58:03,42.805,6.029,-0.003,-0.049,-0.004,110.0,111.0,108.0,13.4,1505.2,347.7,-0.8,1.9,2471.608,13.29,0.049,183.5
2023-12-01T07:04:03,42.805,6.029,0.004,-0.046,-0.01,111.0,109.0,106.0,13.4,1505.2,340.1,-0.8,1.8,2471.691,13.28,0.046,175.0
2023-12-01T07:07:03,42.805,6.029,0.0,-0.048,-0.012,112.0,109.0,106.0,13.3,1505.2,356.5,-0.8,1.8,2471.676,13.29,0.048,180.0
2023-12-01T07:10:03,42.805,6.029,0.015,-0.046,0.009,111.0,110.0,108.0,13.3,1505.2,342.8,-0.7,1.8,2471.686,13.29,0.048,161.9
2023-12-01T07:13:03,42.805,6.029,-0.006,-0.053,0.014,112.0,110.0,107.0,13.3,1505.2,0.8,-0.8,1.8,2471.64,13.29,0.053,186.5
2023-12-01T07:16:03,42.805,6.029,0.022,-0.023,-0.015,111.0,110.0,106.0,13.3,1505.2,354.4,-0.8,1.8,2471.653,13.29,0.031,136.3
2023-12-01T07:19:03,42.805,6.029,0.003,-0.045,-0.009,111.0,110.0,106.0,13.3,1505.2,0.0,-0.8,1.8,2471.662,13.29,0.045,176.2
2023-12-01T07:22:03,42.805,6.029,0.014,-0.03,-0.003,112.0,110.0,107.0,13.4,1505.2,355.0,-0.7,1.8,2471.634,13.29,0.033,155.0
2023-12-01T07:25:03,42.805,6.029,0.02,-0.067,-0.004,110.0,110.0,106.0,13.4,1505.2,348.8,-0.8,1.8,2471.646,13.29,0.069,163.4
2023-12-01T07:28:03,42.805,6.029,0.011,-0.058,-0.022,111.0,109.0,108.0,13.3,1505.2,348.6,-0.7,1.8,2471.672,13.29,0.059,169.3
2023-12-01T07:31:03,42.805,6.029,0.0,-0.027,-0.035,111.0,111.0,108.0,13.4,1505.2,353.6,-0.7,1.8,2471.686,13.29,0.026,180.0
2023-12-01T07:34:03,42.805,6.029,0.0,-0.052,0.0,111.0,111.0,107.0,13.4,1505.2,350.5,-0.8,1.8,2471.659,13.29,0.052,180.0
2023-12-01T07:37:03,42.805,6.029,0.0,-0.021,-0.005,111.0,109.0,107.0,13.3,1505.2,0.8,-0.8,1.8,2471.651,13.29,0.021,180.0
2023-12-01T07:40:03,42.805,6.029,0.032,-0.06,0.0,111.0,110.0,107.0,13.4,1505.2,341.8,-0.8,1.8,2471.691,13.29,0.067,151.9
2023-12-01T07:43:03,42.805,6.029,-0.002,-0.05,-0.01,110.0,111.0,108.0,13.4,1505.2,345.5,-0.8,1.8,2471.663,13.29,0.05,182.3
2023-12-01T07:46:03,42.805,6.029,0.003,-0.049,-0.005,111.0,108.0,106.0,13.4,1505.2,2.5,-0.8,1.8,2471.661,13.29,0.049,176.5
2023-12-01T07:49:03,42.805,6.029,0.006,-0.033,0.011,110.0,110.0,108.0,13.4,1505.2,348.6,-0.8,1.8,2471.625,13.29,0.033,169.7
2023-12-01T07:52:03,42.805,6.029,0.002,-0.04,0.004,111.0,110.0,107.0,13.3,1505.2,0.8,-0.7,1.8,2471.689,13.29,0.04,177.1
2023-12-01T07:55:03,42.805,6.029,0.014,-0.044,0.009,110.0,110.0,107.0,13.4,1505.2,335.2,-0.7,1.8,2471.657,13.29,0.046,162.4
2023-12-01T07:58:03,42.805,6.029,0.018,-0.038,-0.01,111.0,111.0,107.0,13.4,1505.2,344.6,-0.7,1.8,2471.68,13.29,0.042,154.7
2023-12-01T08:04:03,42.805,6.029,0.008,-0.035,0.018,111.0,111.0,106.0,13.3,1505.2,358.3,-0.8,1.8,2471.746,13.28,0.035,167.1
2023-12-01T08:07:03,42.805,6.029,-0.002,-0.056,-0.014,111.0,110.0,107.0,13.4,1505.2,348.1,-0.8,1.8,2471.71,13.29,0.056,182.0
2023-12-01T08:10:03,42.805,6.029,0.002,-0.047,0.004,112.0,110.0,106.0,13.3,1505.2,357.6,-0.7,1.8,2471.765,13.29,0.047,177.6
2023-12-01T08:13:03,42.805,6.029,0.01,-0.037,0.008,111.0,110.0,107.0,13.4,1505.2,340.7,-0.8,1.8,2471.741,13.29,0.038,164.9
2023-12-01T08:16:03,42.805,6.029,-0.016,-0.028,-0.035,111.0,109.0,107.0,13.4,1505.2,353.2,-0.8,1.8,2471.724,13.29,0.032,209.7
2023-12-01T08:19:03,42.805,6.029,-0.006,-0.028,-0.024,111.0,110.0,107.0,13.4,1505.2,343.7,-0.8,1.8,2471.744,13.29,0.028,192.1
2023-12-01T08:22:03,42.805,6.029,0.003,-0.044,-0.019,111.0,111.0,107.0,13.4,1505.2,338.3,-0.7,1.8,2471.727,13.29,0.044,176.1
2023-12-01T08:25:03,42.805,6.029,0.024,-0.035,-0.038,110.0,111.0,107.0,13.4,1505.2,343.3,-0.8,1.8,2471.703,13.29,0.042,145.6
2023-12-01T08:28:03,42.805,6.029,0.001,-0.028,-0.028,112.0,111.0,108.0,13.4,1505.2,340.8,-0.8,1.8,2471.729,13.29,0.028,178.0
2023-12-01T08:31:03,42.805,6.029,0.007,-0.024,-0.025,111.0,110.0,107.0,13.4,1505.2,349.6,-0.8,1.8,2471.699,13.29,0.025,163.7
2023-12-01T08:34:03,42.805,6.029,-0.006,-0.044,-0.018,112.0,111.0,107.0,13.3,1505.2,0.0,-0.7,1.8,2471.682,13.29,0.044,187.8
2023-12-01T08:37:03,42.805,6.029,0.019,-0.032,-0.027,111.0,111.0,107.0,13.3,1505.2,335.6,-0.8,1.8,2471.715,13.29,0.037,149.3
2023-12-01T08:40:03,42.805,6.029,-0.005,-0.035,-0.005,113.0,111.0,107.0,13.4,1505.2,359.0,-0.8,1.8,2471.74,13.29,0.035,188.1
2023-12-01T08:43:03,42.805,6.029,0.01,-0.024,-0.012,111.0,111.0,107.0,13.3,1505.2,338.7,-0.8,1.8,2471.726,13.29,0.026,157.4
2023-12-01T08:46:03,42.805,6.029,0.012,-0.029,0.014,111.0,111.0,107.0,13.4,1505.2,347.5,-0.8,1.8,2471.724,13.29,0.031,157.5
2023-12-01T08:49:03,42.805,6.029,-0.003,-0.013,0.0,111.0,110.0,107.0,13.3,1505.2,0.0,-0.8,1.8,2471.721,13.29,0.013,193.0
2023-12-01T08:52:03,42.805,6.029,0.015,-0.021,-0.003,113.0,110.0,108.0,13.4,1505.2,351.3,-0.8,1.8,2471.751,13.29,0.025,144.5
2023-12-01T08:55:03,42.805,6.029,0.0,-0.035,-0.011,111.0,110.0,108.0,13.4,1505.2,347.7,-0.7,1.8,2471.74,13.29,0.035,180.0
2023-12-01T08:58:03,42.805,6.029,0.012,-0.027,-0.016,110.0,111.0,106.0,13.3,1505.2,347.0,-0.8,1.8,2471.746,13.29,0.029,156.0
2023-12-01T09:04:03,42.805,6.029,0.016,-0.027,-0.008,112.0,111.0,107.0,13.4,1505.2,355.5,-0.8,1.8,2471.759,13.29,0.031,149.3
2023-12-01T09:07:03,42.805,6.029,-0.004,-0.016,-0.061,112.0,110.0,108.0,13.3,1505.2,359.1,-0.8,1.8,2471.743,13.29,0.016,194.0
2023-12-01T09:10:03,42.805,6.029,-0.006,-0.025,-0.026,112.0,111.0,107.0,13.3,1505.2,341.5,-0.7,1.8,2471.745,13.29,0.025,193.5
2023-12-01T09:13:03,42.805,6.029,0.007,-0.019,-0.01,111.0,111.0,106.0,13.3,1505.2,355.7,-0.8,1.8,2471.784,13.29,0.02,159.8
2023-12-01T09:16:03,42.805,6.029,0.01,-0.034,-0.005,112.0,109.0,108.0,13.4,1505.2,2.5,-0.8,1.8,2471.736,13.29,0.035,163.6
2023-12-01T09:19:03,42.805,6.029,0.016,-0.022,-0.017,112.0,110.0,107.0,13.3,1505.2,356.6,-0.7,1.8,2471.747,13.29,0.027,144.0
2023-12-01T09:22:03,42.805,6.029,0.003,-0.031,0.013,111.0,111.0,108.0,13.3,1505.2,2.5,-0.8,1.8,2471.755,13.29,0.031,174.5
2023-12-01T09:25:03,42.805,6.029,0.003,-0.013,-0.018,109.0,111.0,108.0,13.4,1505.2,342.2,-0.8,1.8,2471.776,13.29,0.013,167.0
2023-12-01T09:28:03,42.805,6.029,0.0,0.0,-0.004,112.0,111.0,108.0,13.4,1505.2,346.6,-0.8,1.8,2471.747,13.29,0.0,0.0
2023-12-01T09:31:03,42.805,6.029,0.01,-0.034,-0.02,116.0,110.0,108.0,13.4,1505.2,345.5,-0.7,1.8,2471.749,13.29,0.035,163.6
2023-12-01T09:34:03,42.805,6.029,0.039,-0.013,-0.013,112.0,111.0,108.0,13.4,1505.2,345.9,-0.8,1.8,2471.748,13.29,0.041,108.4
2023-12-01T09:37:03,42.805,6.029,0.005,-0.013,-0.049,112.0,111.0,108.0,13.3,1505.2,345.1,-0.7,1.8,2471.743,13.29,0.013,159.0
2023-12-01T09:40:03,42.805,6.029,0.005,-0.03,-0.014,111.0,111.0,107.0,13.4,1505.2,351.6,-0.8,1.8,2471.753,13.29,0.03,170.5
2023-12-01T09:43:03,42.805,6.029,0.014,-0.02,-0.031,112.0,111.0,108.0,13.4,1505.2,343.0,-0.8,1.8,2471.736,13.29,0.024,145.0
2023-12-01T09:46:03,42.805,6.029,0.014,-0.015,0.002,112.0,111.0,108.0,13.3,1505.2,341.5,-0.8,1.8,2471.704,13.29,0.02,137.0
2023-12-01T09:49:03,42.805,6.029,0.013,-0.026,0.002,112.0,112.0,107.0,13.3,1505.2,353.4,-0.8,1.8,2471.741,13.29,0.029,153.4
2023-12-01T09:52:03,42.805,6.029,0.008,-0.03,-0.011,112.0,112.0,107.0,13.4,1505.2,348.1,-0.8,1.8,2471.731,13.29,0.031,165.1
2023-12-01T09:55:03,42.805,6.029,0.024,-0.014,0.005,112.0,111.0,108.0,13.4,1505.2,341.8,-0.8,1.8,2471.753,13.29,0.027,120.3